GFSMA_prec_precacc_045.txt.gz
Total_Precipitation_Accumulation
0.02 0.01 0.00 0.00 0.00 0.00 0.00 0.00 0.00 0.00 0.00 0.00 0.00 0.00 0.00 0.00 0.00 0.00 0.00 0.00 0.00 0.00 0.00 0.00 0.00 0.00 0.00 0.00 0.00 0.00 0.01 0.07 0.09 0.16 0.20 0.16 0.16 0.19 0.24 0.24 0.24 0.17 0.17
0.00 0.00 0.00 0.00 0.00 0.00 0.00 0.00 0.00 0.00 0.00 0.00 0.00 0.00 0.00 0.00 0.00 0.00 0.00 0.00 0.00 0.00 0.00 0.00 0.00 0.00 0.00 0.00 0.00 0.00 0.00 0.00 0.03 0.06 0.19 0.18 0.15 0.19 0.19 0.18 0.23 0.27 0.20
0.00 0.01 0.00 0.00 0.00 0.00 0.00 0.00 0.00 0.00 0.00 0.00 0.00 0.00 0.00 0.00 0.00 0.00 0.00 0.00 0.00 0.00 0.00 0.00 0.00 0.00 0.00 0.00 0.00 0.00 0.00 0.00 0.01 0.05 0.08 0.18 0.16 0.14 0.19 0.20 0.24 0.29 0.30
0.01 0.00 0.00 0.00 0.00 0.00 0.00 0.00 0.00 0.00 0.00 0.00 0.00 0.00 0.00 0.00 0.00 0.00 0.00 0.00 0.00 0.00 0.00 0.00 0.00 0.00 0.00 0.00 0.00 0.00 0.00 0.00 0.00 0.00 0.01 0.08 0.27 0.23 0.15 0.20 0.33 0.37 0.37
0.00 0.00 0.00 0.00 0.00 0.00 0.00 0.00 0.00 0.00 0.01 0.00 0.00 0.00 0.00 0.00 0.00 0.00 0.00 0.00 0.00 0.00 0.00 0.00 0.00 0.00 0.00 0.00 0.00 0.00 0.00 0.00 0.00 0.01 0.01 0.00 0.03 0.21 0.32 0.30 0.31 0.45 0.47
0.00 0.00 0.00 0.00 0.00 0.00 0.00 0.00 0.00 0.00 0.00 0.00 0.00 0.00 0.00 0.00 0.00 0.00 0.00 0.00 0.00 0.00 0.00 0.00 0.00 0.00 0.00 0.00 0.00 0.00 0.00 0.00 0.00 0.01 0.01 0.00 0.01 0.01 0.05 0.18 0.37 0.55 0.63
0.00 0.00 0.00 0.00 0.00 0.00 0.00 0.00 0.00 0.00 0.00 0.00 0.00 0.00 0.00 0.00 0.00 0.00 0.00 0.00 0.00 0.00 0.00 0.00 0.00 0.00 0.00 0.00 0.00 0.00 0.00 0.00 0.00 0.00 0.00 0.01 0.01 0.00 0.00 0.03 0.13 0.28 0.49
0.00 0.00 0.00 0.00 0.00 0.00 0.00 0.00 0.00 0.00 0.00 0.00 0.00 0.01 0.00 0.00 0.00 0.00 0.00 0.01 0.00 0.01 0.01 0.00 0.00 0.00 0.00 0.00 0.00 0.00 0.00 0.00 0.00 0.00 0.00 0.00 0.01 0.01 0.00 0.01 0.04 0.17 0.34
0.00 0.00 0.00 0.00 0.00 0.00 0.00 0.00 0.00 0.00 0.00 0.00 0.00 0.02 0.02 0.00 0.00 0.00 0.00 0.01 0.02 0.01 0.02 0.02 0.02 0.01 0.00 0.00 0.00 0.00 0.00 0.00 0.00 0.00 0.00 0.00 0.00 0.01 0.02 0.01 0.02 0.02 0.07
0.00 0.00 0.00 0.00 0.00 0.00 0.00 0.00 0.00 0.00 0.00 0.00 0.00 0.00 0.00 0.02 0.05 0.03 0.00 0.00 0.00 0.02 0.03 0.03 0.04 0.07 0.08 0.05 0.03 0.02 0.00 0.00 0.00 0.00 0.00 0.00 0.00 0.00 0.01 0.03 0.02 0.02 0.02
0.00 0.00 0.00 0.00 0.00 0.00 0.00 0.00 0.00 0.00 0.00 0.00 0.00 0.00 0.00 0.01 0.02 0.07 0.05 0.01 0.02 0.02 0.03 0.05 0.05 0.07 0.11 0.13 0.14 0.12 0.07 0.03 0.01 0.00 0.00 0.00 0.01 0.01 0.01 0.02 0.03 0.03 0.03
0.01 0.01 0.00 0.00 0.00 0.00 0.00 0.00 0.01 0.01 0.00 0.00 0.00 0.01 0.02 0.04 0.04 0.06 0.08 0.04 0.04 0.04 0.07 0.16 0.19 0.15 0.17 0.14 0.14 0.13 0.10 0.05 0.03 0.03 0.01 0.01 0.01 0.01 0.01 0.01 0.02 0.03 0.04
0.02 0.01 0.00 0.00 0.00 0.01 0.02 0.06 0.08 0.03 0.00 0.01 0.02 0.03 0.03 0.04 0.04 0.06 0.11 0.10 0.10 0.04 0.10 0.12 0.12 0.09 0.17 0.30 0.29 0.27 0.21 0.16 0.11 0.05 0.01 0.01 0.01 0.00 0.01 0.00 0.03 0.03 0.04
0.02 0.01 0.00 0.00 0.03 0.07 0.08 0.05 0.03 0.02 0.04 0.06 0.05 0.05 0.03 0.03 0.03 0.08 0.18 0.28 0.25 0.12 0.08 0.07 0.04 0.08 0.08 0.12 0.21 0.22 0.12 0.12 0.16 0.17 0.15 0.09 0.03 0.01 0.01 0.01 0.01 0.04 0.06
0.02 0.01 0.02 0.05 0.06 0.02 0.01 0.01 0.02 0.03 0.05 0.07 0.08 0.08 0.08 0.05 0.05 0.07 0.12 0.24 0.49 0.38 0.08 0.02 0.04 0.04 0.07 0.10 0.12 0.18 0.21 0.16 0.15 0.14 0.11 0.12 0.14 0.10 0.04 0.02 0.01 0.03 0.05
0.02 0.02 0.02 0.01 0.00 0.00 0.00 0.01 0.01 0.03 0.06 0.06 0.06 0.06 0.04 0.06 0.07 0.09 0.12 0.14 0.15 0.21 0.13 0.00 0.00 0.00 0.00 0.01 0.03 0.05 0.09 0.16 0.16 0.17 0.21 0.09 0.04 0.10 0.15 0.13 0.03 0.01 0.03
0.02 0.01 0.01 0.00 0.00 0.01 0.01 0.03 0.05 0.05 0.05 0.05 0.04 0.04 0.04 0.04 0.03 0.03 0.01 0.00 0.01 0.02 0.03 0.00 0.00 0.00 0.00 0.00 0.00 0.00 0.01 0.03 0.06 0.09 0.17 0.18 0.13 0.14 0.13 0.16 0.16 0.06 0.01
0.03 0.02 0.01 0.02 0.03 0.05 0.06 0.07 0.04 0.03 0.02 0.02 0.01 0.02 0.01 0.00 0.00 0.00 0.00 0.00 0.00 0.00 0.00 0.00 0.00 0.00 0.00 0.00 0.00 0.00 0.00 0.00 0.01 0.03 0.08 0.18 0.25 0.20 0.17 0.17 0.17 0.14 0.06
0.04 0.04 0.03 0.04 0.05 0.05 0.04 0.03 0.02 0.00 0.01 0.01 0.01 0.00 0.00 0.00 0.00 0.00 0.00 0.00 0.00 0.00 0.01 0.03 0.01 0.00 0.00 0.00 0.01 0.01 0.01 0.00 0.00 0.00 0.01 0.04 0.08 0.12 0.16 0.17 0.15 0.15 0.13
0.03 0.02 0.02 0.02 0.02 0.04 0.03 0.00 0.00 0.01 0.01 0.00 0.00 0.00 0.00 0.00 0.00 0.00 0.00 0.00 0.01 0.02 0.02 0.03 0.03 0.02 0.02 0.01 0.02 0.03 0.04 0.03 0.02 0.01 0.01 0.01 0.03 0.05 0.06 0.10 0.13 0.11 0.10
0.02 0.01 0.02 0.08 0.10 0.07 0.04 0.02 0.00 0.00 0.00 0.00 0.00 0.00 0.00 0.00 0.00 0.00 0.01 0.01 0.03 0.05 0.05 0.06 0.04 0.04 0.03 0.02 0.04 0.06 0.08 0.04 0.02 0.02 0.03 0.03 0.04 0.04 0.04 0.07 0.10 0.13 0.09
0.04 0.07 0.16 0.18 0.12 0.08 0.05 0.01 0.00 0.00 0.00 0.00 0.00 0.00 0.00 0.00 0.00 0.00 0.01 0.02 0.03 0.09 0.15 0.11 0.08 0.07 0.05 0.06 0.07 0.07 0.09 0.07 0.05 0.04 0.08 0.06 0.05 0.07 0.08 0.13 0.17 0.20 0.24
0.25 0.32 0.23 0.14 0.08 0.04 0.01 0.00 0.00 0.00 0.00 0.00 0.00 0.00 0.00 0.00 0.00 0.00 0.00 0.01 0.02 0.03 0.09 0.12 0.14 0.09 0.09 0.07 0.07 0.09 0.11 0.13 0.10 0.04 0.06 0.05 0.04 0.05 0.02 0.01 0.02 0.03 0.10
0.31 0.20 0.11 0.03 0.00 0.00 0.00 0.00 0.00 0.00 0.00 0.00 0.00 0.00 0.00 0.00 0.01 0.02 0.11 0.08 0.02 0.01 0.01 0.03 0.07 0.06 0.05 0.04 0.06 0.09 0.12 0.12 0.06 0.01 0.03 0.08 0.02 0.03 0.03 0.00 0.00 0.00 0.03
0.06 0.00 0.00 0.00 0.00 0.00 0.00 0.00 0.00 0.00 0.00 0.00 0.00 0.00 0.01 0.01 0.02 0.08 0.10 0.06 0.03 0.01 0.01 0.02 0.04 0.07 0.10 0.09 0.09 0.21 0.18 0.20 0.15 0.05 0.04 0.09 0.04 0.04 0.02 0.01 0.00 0.00 0.01
0.00 0.00 0.00 0.00 0.00 0.00 0.01 0.00 0.00 0.01 0.01 0.02 0.02 0.01 0.01 0.05 0.12 0.09 0.15 0.12 0.10 0.04 0.02 0.03 0.02 0.03 0.04 0.05 0.04 0.08 0.14 0.26 0.23 0.17 0.07 0.18 0.09 0.11 0.14 0.08 0.04 0.03 0.02

GFSMA_prec_precacc_048.txt.gz
Total_Precipitation_Accumulation
0.02 0.01 0.00 0.00 0.00 0.00 0.00 0.00 0.00 0.00 0.00 0.00 0.00 0.00 0.00 0.00 0.00 0.00 0.00 0.00 0.00 0.00 0.00 0.00 0.00 0.00 0.00 0.00 0.00 0.00 0.01 0.07 0.09 0.16 0.20 0.16 0.16 0.19 0.24 0.24 0.24 0.17 0.17
0.00 0.00 0.00 0.00 0.00 0.00 0.00 0.00 0.00 0.00 0.00 0.00 0.00 0.00 0.00 0.00 0.00 0.00 0.00 0.00 0.00 0.00 0.00 0.00 0.00 0.00 0.00 0.00 0.00 0.00 0.00 0.00 0.03 0.06 0.19 0.18 0.15 0.19 0.19 0.18 0.23 0.27 0.20
0.00 0.01 0.00 0.00 0.00 0.00 0.00 0.00 0.00 0.00 0.00 0.00 0.00 0.00 0.00 0.00 0.00 0.00 0.00 0.00 0.00 0.00 0.00 0.00 0.00 0.00 0.00 0.00 0.00 0.00 0.00 0.00 0.01 0.05 0.08 0.18 0.16 0.14 0.19 0.20 0.24 0.29 0.30
0.01 0.01 0.00 0.00 0.00 0.00 0.00 0.00 0.00 0.00 0.00 0.00 0.00 0.00 0.00 0.00 0.00 0.00 0.00 0.00 0.00 0.00 0.00 0.00 0.00 0.00 0.00 0.00 0.00 0.00 0.00 0.00 0.00 0.00 0.01 0.08 0.27 0.23 0.15 0.20 0.33 0.37 0.37
0.03 0.01 0.00 0.00 0.00 0.00 0.00 0.00 0.00 0.00 0.01 0.00 0.00 0.00 0.00 0.00 0.00 0.00 0.00 0.00 0.00 0.00 0.00 0.00 0.00 0.00 0.00 0.00 0.00 0.00 0.00 0.00 0.00 0.01 0.01 0.00 0.03 0.21 0.32 0.30 0.31 0.45 0.47
0.01 0.00 0.00 0.00 0.00 0.00 0.00 0.00 0.00 0.00 0.00 0.00 0.00 0.00 0.00 0.00 0.00 0.00 0.00 0.00 0.00 0.00 0.00 0.00 0.00 0.00 0.00 0.00 0.00 0.00 0.00 0.00 0.00 0.01 0.01 0.00 0.01 0.01 0.05 0.18 0.37 0.55 0.63
0.00 0.00 0.00 0.00 0.00 0.00 0.00 0.00 0.00 0.00 0.00 0.00 0.00 0.00 0.00 0.00 0.00 0.00 0.00 0.00 0.00 0.00 0.00 0.00 0.00 0.00 0.00 0.00 0.00 0.00 0.00 0.00 0.00 0.00 0.00 0.01 0.01 0.00 0.00 0.03 0.13 0.28 0.49
0.00 0.00 0.00 0.00 0.00 0.00 0.00 0.00 0.00 0.00 0.00 0.00 0.00 0.01 0.00 0.00 0.00 0.00 0.00 0.01 0.00 0.01 0.01 0.00 0.00 0.00 0.00 0.00 0.00 0.00 0.00 0.00 0.00 0.00 0.00 0.00 0.01 0.01 0.00 0.01 0.04 0.17 0.34
0.00 0.00 0.00 0.00 0.00 0.00 0.00 0.00 0.00 0.00 0.00 0.00 0.00 0.02 0.02 0.00 0.00 0.00 0.00 0.01 0.02 0.01 0.02 0.02 0.02 0.01 0.00 0.00 0.00 0.00 0.00 0.00 0.00 0.00 0.00 0.00 0.00 0.01 0.02 0.01 0.02 0.02 0.07
0.00 0.00 0.00 0.00 0.00 0.00 0.00 0.00 0.00 0.00 0.00 0.00 0.00 0.00 0.00 0.02 0.05 0.03 0.00 0.00 0.00 0.02 0.03 0.03 0.04 0.07 0.08 0.05 0.03 0.02 0.00 0.00 0.00 0.00 0.00 0.00 0.00 0.00 0.01 0.03 0.02 0.02 0.02
0.00 0.00 0.00 0.00 0.00 0.00 0.00 0.00 0.00 0.00 0.00 0.00 0.00 0.00 0.00 0.01 0.02 0.07 0.05 0.01 0.02 0.02 0.03 0.05 0.05 0.07 0.11 0.13 0.14 0.12 0.07 0.03 0.01 0.00 0.00 0.00 0.01 0.01 0.01 0.02 0.03 0.03 0.03
0.02 0.01 0.00 0.00 0.00 0.00 0.00 0.00 0.01 0.01 0.01 0.00 0.00 0.01 0.02 0.04 0.04 0.06 0.08 0.04 0.04 0.04 0.07 0.16 0.19 0.15 0.17 0.14 0.14 0.13 0.10 0.05 0.03 0.03 0.01 0.01 0.01 0.01 0.01 0.01 0.02 0.03 0.04
0.04 0.02 0.01 0.00 0.01 0.01 0.02 0.06 0.08 0.04 0.01 0.01 0.02 0.03 0.03 0.04 0.04 0.06 0.11 0.10 0.10 0.04 0.10 0.12 0.12 0.09 0.17 0.30 0.29 0.27 0.21 0.16 0.11 0.05 0.01 0.01 0.01 0.00 0.01 0.00 0.03 0.03 0.04
0.03 0.02 0.01 0.01 0.04 0.07 0.08 0.05 0.03 0.02 0.04 0.06 0.05 0.05 0.03 0.03 0.03 0.08 0.18 0.28 0.25 0.12 0.08 0.07 0.04 0.08 0.08 0.12 0.21 0.22 0.12 0.12 0.16 0.17 0.15 0.09 0.03 0.01 0.01 0.01 0.01 0.04 0.06
0.06 0.04 0.03 0.05 0.06 0.02 0.01 0.01 0.02 0.04 0.06 0.07 0.08 0.08 0.08 0.05 0.05 0.07 0.12 0.24 0.49 0.38 0.08 0.02 0.04 0.04 0.07 0.10 0.12 0.18 0.21 0.16 0.15 0.14 0.11 0.12 0.14 0.10 0.04 0.02 0.01 0.03 0.05
0.06 0.04 0.03 0.01 0.00 0.01 0.01 0.01 0.02 0.05 0.08 0.07 0.08 0.07 0.04 0.06 0.07 0.09 0.12 0.14 0.15 0.22 0.13 0.00 0.00 0.00 0.00 0.01 0.03 0.05 0.09 0.16 0.16 0.17 0.21 0.09 0.04 0.10 0.15 0.13 0.03 0.01 0.03
0.04 0.03 0.01 0.01 0.01 0.01 0.03 0.06 0.10 0.08 0.07 0.08 0.05 0.04 0.04 0.04 0.03 0.03 0.01 0.00 0.01 0.02 0.04 0.00 0.00 0.00 0.00 0.00 0.00 0.00 0.01 0.03 0.06 0.09 0.17 0.18 0.13 0.14 0.13 0.16 0.16 0.06 0.01
0.06 0.03 0.03 0.05 0.07 0.07 0.10 0.13 0.10 0.09 0.06 0.02 0.01 0.02 0.01 0.00 0.00 0.00 0.00 0.00 0.00 0.00 0.00 0.00 0.00 0.00 0.00 0.00 0.00 0.00 0.00 0.00 0.01 0.03 0.08 0.18 0.25 0.20 0.17 0.17 0.17 0.14 0.06
0.06 0.05 0.06 0.06 0.08 0.11 0.11 0.08 0.06 0.04 0.02 0.02 0.01 0.00 0.00 0.00 0.00 0.00 0.00 0.00 0.00 0.00 0.01 0.03 0.01 0.00 0.00 0.00 0.01 0.01 0.01 0.00 0.00 0.00 0.01 0.04 0.08 0.12 0.16 0.17 0.15 0.15 0.13
0.04 0.02 0.03 0.03 0.04 0.07 0.07 0.06 0.04 0.03 0.02 0.01 0.00 0.00 0.00 0.00 0.00 0.00 0.01 0.01 0.01 0.02 0.02 0.03 0.03 0.02 0.02 0.01 0.02 0.03 0.04 0.03 0.02 0.01 0.01 0.01 0.03 0.05 0.06 0.10 0.13 0.11 0.10
0.02 0.02 0.04 0.11 0.14 0.10 0.08 0.07 0.04 0.02 0.01 0.00 0.00 0.00 0.00 0.00 0.00 0.00 0.01 0.01 0.03 0.05 0.05 0.06 0.04 0.04 0.03 0.02 0.04 0.06 0.08 0.04 0.02 0.02 0.03 0.03 0.04 0.04 0.04 0.07 0.10 0.13 0.09
0.04 0.07 0.17 0.19 0.15 0.12 0.11 0.06 0.03 0.02 0.00 0.00 0.00 0.00 0.00 0.00 0.00 0.00 0.01 0.02 0.03 0.10 0.15 0.11 0.08 0.07 0.05 0.06 0.07 0.07 0.09 0.07 0.05 0.04 0.08 0.06 0.05 0.07 0.08 0.13 0.17 0.20 0.24
0.25 0.33 0.25 0.18 0.12 0.06 0.03 0.01 0.00 0.00 0.00 0.00 0.00 0.00 0.00 0.00 0.00 0.00 0.00 0.01 0.02 0.03 0.09 0.12 0.14 0.09 0.09 0.07 0.07 0.09 0.11 0.13 0.10 0.04 0.06 0.05 0.04 0.05 0.02 0.01 0.02 0.03 0.10
0.33 0.23 0.12 0.04 0.01 0.00 0.00 0.00 0.00 0.00 0.00 0.00 0.00 0.00 0.00 0.00 0.01 0.02 0.11 0.08 0.02 0.01 0.01 0.03 0.07 0.06 0.05 0.04 0.06 0.09 0.12 0.12 0.06 0.01 0.03 0.08 0.02 0.03 0.03 0.00 0.00 0.00 0.03
0.06 0.00 0.00 0.00 0.00 0.00 0.00 0.00 0.00 0.00 0.00 0.00 0.00 0.00 0.01 0.01 0.02 0.08 0.10 0.06 0.03 0.02 0.01 0.02 0.04 0.07 0.10 0.09 0.09 0.21 0.18 0.20 0.15 0.05 0.04 0.09 0.04 0.04 0.02 0.01 0.00 0.00 0.01
0.00 0.00 0.00 0.00 0.00 0.00 0.01 0.00 0.00 0.01 0.01 0.02 0.02 0.01 0.01 0.05 0.12 0.09 0.15 0.12 0.11 0.04 0.02 0.03 0.02 0.03 0.04 0.05 0.04 0.08 0.14 0.26 0.23 0.17 0.07 0.18 0.09 0.11 0.15 0.08 0.04 0.03 0.02

GFSMA_prec_precacc_051.txt.gz
Total_Precipitation_Accumulation
0.02 0.01 0.00 0.00 0.00 0.00 0.00 0.00 0.00 0.00 0.00 0.00 0.00 0.00 0.00 0.00 0.00 0.00 0.00 0.00 0.00 0.00 0.01 0.00 0.00 0.00 0.00 0.00 0.00 0.00 0.01 0.07 0.09 0.16 0.20 0.16 0.16 0.19 0.24 0.24 0.24 0.17 0.17
0.00 0.00 0.00 0.00 0.00 0.00 0.00 0.00 0.00 0.00 0.00 0.00 0.00 0.00 0.00 0.00 0.00 0.00 0.00 0.00 0.00 0.00 0.00 0.00 0.00 0.00 0.00 0.00 0.00 0.00 0.00 0.00 0.03 0.06 0.19 0.18 0.15 0.19 0.19 0.18 0.23 0.27 0.20
0.00 0.01 0.00 0.00 0.00 0.00 0.00 0.00 0.00 0.00 0.00 0.00 0.00 0.00 0.00 0.00 0.00 0.00 0.00 0.00 0.00 0.00 0.00 0.00 0.00 0.00 0.00 0.00 0.00 0.00 0.00 0.00 0.01 0.05 0.08 0.18 0.16 0.14 0.19 0.20 0.24 0.29 0.30
0.02 0.01 0.00 0.00 0.00 0.00 0.00 0.00 0.00 0.00 0.00 0.00 0.00 0.00 0.00 0.00 0.00 0.00 0.00 0.00 0.00 0.00 0.00 0.00 0.00 0.00 0.00 0.00 0.00 0.00 0.00 0.00 0.00 0.00 0.01 0.08 0.27 0.23 0.15 0.20 0.33 0.37 0.37
0.05 0.02 0.00 0.00 0.00 0.00 0.00 0.00 0.00 0.00 0.01 0.00 0.00 0.00 0.00 0.00 0.00 0.00 0.00 0.00 0.00 0.00 0.00 0.00 0.00 0.00 0.00 0.00 0.00 0.00 0.00 0.00 0.00 0.01 0.01 0.00 0.03 0.21 0.32 0.30 0.31 0.45 0.47
0.01 0.00 0.00 0.00 0.00 0.00 0.00 0.00 0.00 0.00 0.00 0.00 0.00 0.00 0.00 0.00 0.00 0.00 0.00 0.00 0.00 0.00 0.00 0.00 0.00 0.00 0.00 0.00 0.00 0.00 0.00 0.00 0.00 0.01 0.01 0.00 0.01 0.01 0.05 0.18 0.37 0.55 0.63
0.00 0.00 0.00 0.00 0.00 0.00 0.00 0.00 0.00 0.00 0.00 0.00 0.00 0.00 0.00 0.00 0.00 0.00 0.00 0.00 0.00 0.00 0.00 0.00 0.00 0.00 0.00 0.00 0.00 0.00 0.00 0.00 0.00 0.00 0.00 0.01 0.01 0.00 0.00 0.03 0.13 0.28 0.49
0.00 0.00 0.00 0.00 0.00 0.00 0.00 0.00 0.00 0.00 0.00 0.00 0.00 0.01 0.00 0.00 0.00 0.00 0.00 0.01 0.00 0.01 0.01 0.00 0.00 0.00 0.00 0.00 0.00 0.00 0.00 0.00 0.00 0.00 0.00 0.00 0.01 0.01 0.00 0.01 0.04 0.17 0.34
0.00 0.00 0.00 0.00 0.00 0.00 0.00 0.00 0.00 0.00 0.00 0.00 0.00 0.02 0.02 0.00 0.00 0.00 0.00 0.01 0.02 0.01 0.02 0.02 0.02 0.01 0.00 0.00 0.00 0.00 0.00 0.00 0.00 0.00 0.00 0.00 0.00 0.01 0.02 0.01 0.02 0.02 0.07
0.02 0.00 0.00 0.00 0.00 0.00 0.00 0.00 0.00 0.00 0.00 0.00 0.00 0.00 0.00 0.02 0.05 0.03 0.00 0.00 0.00 0.02 0.03 0.03 0.04 0.07 0.08 0.05 0.03 0.02 0.00 0.00 0.00 0.00 0.00 0.00 0.00 0.00 0.01 0.03 0.02 0.02 0.02
0.01 0.01 0.01 0.01 0.00 0.00 0.00 0.00 0.00 0.00 0.00 0.00 0.00 0.00 0.00 0.01 0.02 0.07 0.05 0.01 0.02 0.02 0.03 0.05 0.05 0.07 0.11 0.13 0.14 0.12 0.07 0.03 0.01 0.00 0.00 0.00 0.01 0.01 0.01 0.02 0.03 0.03 0.03
0.02 0.02 0.02 0.01 0.01 0.00 0.00 0.00 0.01 0.01 0.01 0.00 0.00 0.01 0.02 0.04 0.04 0.06 0.08 0.04 0.04 0.04 0.07 0.16 0.19 0.15 0.17 0.14 0.14 0.13 0.10 0.05 0.03 0.03 0.01 0.01 0.01 0.01 0.01 0.01 0.02 0.03 0.04
0.04 0.03 0.03 0.02 0.01 0.01 0.02 0.06 0.08 0.04 0.01 0.01 0.02 0.03 0.03 0.04 0.04 0.06 0.11 0.10 0.10 0.04 0.10 0.12 0.12 0.09 0.17 0.30 0.29 0.27 0.21 0.16 0.11 0.05 0.01 0.01 0.01 0.00 0.01 0.00 0.03 0.03 0.04
0.04 0.03 0.02 0.02 0.04 0.07 0.08 0.05 0.03 0.03 0.04 0.06 0.05 0.06 0.05 0.03 0.03 0.08 0.18 0.28 0.25 0.12 0.08 0.07 0.04 0.08 0.08 0.12 0.21 0.22 0.12 0.12 0.16 0.17 0.15 0.09 0.03 0.01 0.01 0.01 0.01 0.04 0.06
0.08 0.05 0.05 0.06 0.06 0.02 0.02 0.03 0.05 0.05 0.06 0.08 0.10 0.10 0.09 0.05 0.05 0.07 0.12 0.24 0.49 0.38 0.08 0.02 0.04 0.04 0.07 0.10 0.12 0.18 0.21 0.16 0.15 0.14 0.11 0.12 0.14 0.10 0.04 0.02 0.01 0.03 0.05
0.09 0.06 0.04 0.02 0.01 0.02 0.02 0.01 0.02 0.05 0.12 0.11 0.11 0.12 0.05 0.06 0.07 0.09 0.12 0.14 0.15 0.22 0.13 0.00 0.00 0.00 0.00 0.01 0.03 0.05 0.09 0.16 0.16 0.17 0.21 0.09 0.04 0.10 0.15 0.13 0.03 0.01 0.03
0.06 0.04 0.03 0.02 0.01 0.02 0.04 0.08 0.13 0.11 0.11 0.15 0.14 0.08 0.05 0.04 0.03 0.03 0.01 0.00 0.01 0.02 0.04 0.00 0.00 0.00 0.00 0.00 0.00 0.00 0.01 0.03 0.06 0.09 0.17 0.18 0.13 0.14 0.13 0.16 0.16 0.06 0.01
0.07 0.04 0.05 0.10 0.12 0.17 0.24 0.26 0.16 0.13 0.13 0.10 0.04 0.02 0.01 0.01 0.00 0.00 0.00 0.00 0.00 0.00 0.00 0.00 0.00 0.00 0.00 0.00 0.00 0.00 0.00 0.00 0.01 0.03 0.08 0.18 0.25 0.20 0.17 0.17 0.17 0.14 0.06
0.08 0.08 0.09 0.12 0.18 0.19 0.14 0.10 0.09 0.11 0.11 0.07 0.02 0.01 0.00 0.01 0.00 0.00 0.00 0.00 0.01 0.00 0.01 0.03 0.01 0.00 0.00 0.00 0.01 0.01 0.01 0.00 0.00 0.00 0.01 0.04 0.08 0.12 0.16 0.17 0.15 0.15 0.13
0.04 0.03 0.03 0.03 0.04 0.08 0.10 0.11 0.12 0.11 0.07 0.02 0.00 0.00 0.01 0.01 0.00 0.00 0.01 0.01 0.02 0.02 0.02 0.03 0.03 0.02 0.02 0.01 0.02 0.03 0.04 0.03 0.02 0.01 0.01 0.01 0.03 0.05 0.06 0.10 0.13 0.11 0.10
0.02 0.02 0.04 0.11 0.14 0.12 0.10 0.09 0.05 0.03 0.01 0.01 0.00 0.00 0.00 0.00 0.00 0.00 0.01 0.01 0.03 0.07 0.06 0.06 0.04 0.04 0.03 0.02 0.04 0.06 0.08 0.04 0.02 0.02 0.03 0.03 0.04 0.04 0.04 0.07 0.10 0.13 0.09
0.04 0.07 0.17 0.19 0.15 0.12 0.11 0.07 0.04 0.02 0.01 0.00 0.00 0.00 0.00 0.00 0.00 0.00 0.01 0.02 0.03 0.10 0.16 0.12 0.09 0.07 0.05 0.07 0.07 0.08 0.09 0.07 0.05 0.04 0.08 0.06 0.05 0.07 0.08 0.13 0.17 0.20 0.24
0.25 0.33 0.25 0.18 0.12 0.06 0.05 0.01 0.01 0.00 0.00 0.00 0.00 0.00 0.00 0.00 0.00 0.00 0.00 0.01 0.02 0.03 0.09 0.13 0.14 0.09 0.09 0.08 0.08 0.09 0.11 0.13 0.10 0.04 0.06 0.05 0.04 0.05 0.02 0.01 0.02 0.03 0.10
0.33 0.23 0.12 0.04 0.01 0.00 0.00 0.00 0.00 0.00 0.00 0.00 0.00 0.00 0.00 0.00 0.01 0.02 0.11 0.08 0.02 0.01 0.01 0.03 0.07 0.06 0.05 0.05 0.07 0.09 0.12 0.12 0.06 0.01 0.03 0.08 0.02 0.03 0.03 0.00 0.00 0.00 0.03
0.06 0.00 0.00 0.00 0.00 0.00 0.00 0.00 0.00 0.00 0.00 0.00 0.00 0.00 0.01 0.01 0.02 0.08 0.10 0.06 0.03 0.02 0.01 0.02 0.04 0.07 0.10 0.09 0.09 0.21 0.18 0.20 0.15 0.05 0.04 0.09 0.04 0.04 0.02 0.01 0.00 0.00 0.01
0.00 0.00 0.00 0.00 0.00 0.00 0.01 0.00 0.00 0.01 0.01 0.02 0.02 0.01 0.01 0.05 0.12 0.09 0.15 0.12 0.11 0.04 0.03 0.05 0.04 0.04 0.04 0.05 0.04 0.08 0.14 0.26 0.23 0.17 0.07 0.18 0.09 0.11 0.15 0.08 0.04 0.03 0.02

GFSMA_prec_precacc_054.txt.gz
Total_Precipitation_Accumulation
0.02 0.01 0.00 0.00 0.00 0.00 0.00 0.00 0.00 0.00 0.00 0.00 0.00 0.00 0.00 0.00 0.00 0.00 0.00 0.00 0.00 0.00 0.01 0.00 0.00 0.00 0.00 0.00 0.00 0.00 0.01 0.07 0.09 0.16 0.20 0.16 0.16 0.19 0.24 0.24 0.24 0.17 0.17
0.00 0.01 0.01 0.00 0.00 0.00 0.00 0.00 0.00 0.00 0.00 0.00 0.00 0.00 0.00 0.00 0.00 0.00 0.00 0.00 0.00 0.00 0.00 0.00 0.00 0.00 0.00 0.00 0.00 0.00 0.00 0.00 0.03 0.06 0.19 0.18 0.15 0.19 0.19 0.18 0.23 0.27 0.20
0.00 0.01 0.00 0.00 0.00 0.00 0.00 0.00 0.00 0.00 0.00 0.00 0.00 0.00 0.00 0.00 0.00 0.00 0.00 0.00 0.00 0.00 0.00 0.00 0.00 0.00 0.00 0.00 0.00 0.00 0.00 0.00 0.01 0.05 0.08 0.18 0.16 0.14 0.19 0.20 0.24 0.29 0.30
0.03 0.01 0.00 0.00 0.00 0.00 0.00 0.00 0.00 0.00 0.00 0.00 0.00 0.00 0.00 0.00 0.00 0.00 0.00 0.00 0.00 0.00 0.00 0.00 0.00 0.00 0.00 0.00 0.00 0.00 0.00 0.00 0.00 0.00 0.01 0.08 0.27 0.23 0.15 0.20 0.33 0.37 0.37
0.08 0.04 0.01 0.00 0.00 0.00 0.00 0.00 0.00 0.00 0.01 0.00 0.00 0.00 0.00 0.00 0.00 0.00 0.00 0.00 0.00 0.00 0.00 0.00 0.00 0.00 0.00 0.00 0.00 0.00 0.00 0.00 0.00 0.01 0.01 0.00 0.03 0.21 0.32 0.30 0.31 0.45 0.47
0.08 0.06 0.04 0.01 0.00 0.00 0.00 0.00 0.00 0.00 0.00 0.00 0.00 0.00 0.00 0.00 0.00 0.00 0.00 0.00 0.00 0.00 0.00 0.00 0.00 0.00 0.00 0.00 0.00 0.00 0.00 0.00 0.00 0.01 0.01 0.00 0.01 0.01 0.05 0.18 0.37 0.55 0.63
0.04 0.06 0.06 0.01 0.00 0.00 0.00 0.00 0.00 0.00 0.00 0.00 0.00 0.00 0.00 0.00 0.00 0.00 0.00 0.00 0.00 0.00 0.00 0.00 0.00 0.00 0.00 0.00 0.00 0.00 0.00 0.00 0.00 0.00 0.00 0.01 0.01 0.00 0.00 0.03 0.13 0.28 0.49
0.03 0.01 0.02 0.01 0.01 0.00 0.00 0.00 0.00 0.00 0.00 0.00 0.00 0.01 0.00 0.00 0.00 0.00 0.00 0.01 0.00 0.01 0.01 0.00 0.00 0.00 0.00 0.00 0.00 0.00 0.00 0.00 0.00 0.00 0.00 0.00 0.01 0.01 0.00 0.01 0.04 0.17 0.34
0.03 0.00 0.00 0.00 0.00 0.00 0.00 0.00 0.00 0.00 0.00 0.00 0.00 0.02 0.02 0.00 0.00 0.00 0.00 0.01 0.02 0.01 0.02 0.02 0.02 0.01 0.00 0.00 0.00 0.00 0.00 0.00 0.00 0.00 0.00 0.00 0.00 0.01 0.02 0.01 0.02 0.02 0.07
0.04 0.01 0.00 0.00 0.00 0.00 0.00 0.00 0.00 0.00 0.00 0.00 0.00 0.00 0.00 0.02 0.05 0.03 0.00 0.00 0.00 0.02 0.03 0.03 0.04 0.07 0.08 0.05 0.03 0.02 0.00 0.00 0.00 0.00 0.00 0.00 0.00 0.00 0.01 0.03 0.02 0.02 0.02
0.01 0.02 0.01 0.01 0.01 0.00 0.00 0.00 0.00 0.00 0.00 0.00 0.00 0.00 0.00 0.01 0.02 0.07 0.05 0.01 0.02 0.02 0.03 0.05 0.05 0.07 0.11 0.13 0.14 0.12 0.07 0.03 0.01 0.00 0.00 0.00 0.01 0.01 0.01 0.02 0.03 0.03 0.03
0.02 0.02 0.02 0.02 0.02 0.02 0.03 0.02 0.02 0.02 0.01 0.01 0.00 0.01 0.02 0.04 0.04 0.06 0.08 0.04 0.04 0.04 0.07 0.16 0.19 0.15 0.17 0.14 0.14 0.13 0.10 0.05 0.03 0.03 0.01 0.01 0.01 0.01 0.01 0.01 0.02 0.03 0.04
0.05 0.05 0.05 0.03 0.02 0.02 0.04 0.07 0.09 0.05 0.01 0.02 0.04 0.06 0.04 0.04 0.04 0.06 0.11 0.10 0.10 0.04 0.10 0.12 0.12 0.09 0.17 0.30 0.29 0.27 0.21 0.16 0.11 0.05 0.01 0.01 0.01 0.00 0.01 0.00 0.03 0.03 0.04
0.06 0.06 0.06 0.03 0.05 0.08 0.08 0.05 0.04 0.04 0.07 0.12 0.13 0.08 0.06 0.04 0.05 0.09 0.19 0.28 0.25 0.12 0.08 0.07 0.04 0.08 0.08 0.12 0.21 0.22 0.12 0.12 0.16 0.17 0.15 0.09 0.03 0.01 0.01 0.01 0.01 0.04 0.06
0.21 0.12 0.12 0.11 0.09 0.04 0.03 0.04 0.06 0.07 0.07 0.10 0.11 0.13 0.12 0.10 0.09 0.08 0.13 0.24 0.49 0.38 0.08 0.02 0.04 0.04 0.07 0.10 0.12 0.18 0.21 0.16 0.15 0.14 0.11 0.12 0.14 0.10 0.04 0.02 0.01 0.03 0.05
0.26 0.19 0.15 0.09 0.04 0.03 0.02 0.02 0.03 0.06 0.13 0.15 0.16 0.17 0.14 0.12 0.10 0.09 0.12 0.14 0.15 0.22 0.13 0.00 0.00 0.00 0.00 0.01 0.03 0.05 0.09 0.16 0.16 0.17 0.21 0.09 0.04 0.10 0.15 0.13 0.03 0.01 0.03
0.16 0.08 0.05 0.04 0.02 0.03 0.06 0.12 0.20 0.22 0.26 0.26 0.19 0.14 0.09 0.07 0.04 0.03 0.01 0.00 0.01 0.02 0.04 0.00 0.00 0.00 0.00 0.00 0.00 0.00 0.01 0.03 0.06 0.09 0.17 0.18 0.13 0.14 0.13 0.16 0.16 0.06 0.01
0.08 0.05 0.05 0.10 0.14 0.23 0.32 0.36 0.27 0.22 0.17 0.14 0.10 0.08 0.04 0.01 0.00 0.00 0.00 0.00 0.00 0.00 0.00 0.00 0.00 0.00 0.00 0.00 0.00 0.00 0.00 0.00 0.01 0.03 0.08 0.18 0.25 0.20 0.17 0.17 0.17 0.14 0.06
0.10 0.09 0.09 0.13 0.19 0.21 0.17 0.13 0.12 0.12 0.14 0.11 0.06 0.03 0.01 0.01 0.00 0.00 0.00 0.00 0.01 0.00 0.01 0.03 0.01 0.00 0.00 0.00 0.01 0.01 0.01 0.00 0.00 0.00 0.01 0.04 0.08 0.12 0.16 0.17 0.15 0.15 0.13
0.05 0.04 0.04 0.04 0.05 0.08 0.10 0.11 0.13 0.12 0.08 0.03 0.01 0.01 0.01 0.01 0.01 0.01 0.01 0.01 0.02 0.02 0.02 0.04 0.03 0.02 0.02 0.01 0.02 0.03 0.04 0.03 0.02 0.01 0.01 0.01 0.03 0.05 0.06 0.10 0.13 0.11 0.10
0.02 0.02 0.04 0.11 0.14 0.12 0.10 0.09 0.05 0.03 0.01 0.01 0.00 0.00 0.00 0.00 0.00 0.00 0.01 0.02 0.03 0.07 0.07 0.07 0.05 0.04 0.03 0.02 0.04 0.06 0.08 0.04 0.02 0.02 0.03 0.03 0.04 0.04 0.04 0.07 0.10 0.13 0.09
0.04 0.07 0.17 0.19 0.15 0.12 0.11 0.07 0.04 0.02 0.01 0.00 0.00 0.00 0.00 0.00 0.00 0.00 0.01 0.02 0.03 0.10 0.16 0.12 0.09 0.08 0.05 0.07 0.07 0.08 0.09 0.07 0.05 0.04 0.08 0.06 0.05 0.07 0.08 0.13 0.17 0.20 0.24
0.25 0.33 0.25 0.18 0.12 0.06 0.05 0.02 0.01 0.00 0.00 0.00 0.00 0.00 0.00 0.00 0.00 0.00 0.00 0.01 0.02 0.03 0.09 0.13 0.14 0.09 0.09 0.08 0.09 0.10 0.11 0.13 0.10 0.04 0.06 0.05 0.04 0.05 0.02 0.01 0.02 0.03 0.10
0.33 0.23 0.12 0.04 0.01 0.00 0.00 0.00 0.00 0.00 0.00 0.00 0.00 0.00 0.00 0.00 0.01 0.02 0.11 0.08 0.02 0.01 0.02 0.04 0.08 0.06 0.05 0.05 0.07 0.09 0.12 0.12 0.06 0.01 0.03 0.08 0.02 0.03 0.03 0.00 0.00 0.00 0.03
0.06 0.00 0.00 0.00 0.00 0.00 0.00 0.00 0.00 0.00 0.00 0.00 0.00 0.00 0.01 0.01 0.02 0.08 0.10 0.06 0.03 0.02 0.01 0.02 0.06 0.09 0.11 0.09 0.09 0.21 0.18 0.20 0.15 0.05 0.04 0.09 0.04 0.04 0.02 0.01 0.00 0.00 0.01
0.00 0.00 0.00 0.00 0.00 0.00 0.01 0.00 0.00 0.01 0.01 0.02 0.02 0.01 0.01 0.05 0.12 0.09 0.15 0.12 0.12 0.04 0.03 0.05 0.05 0.05 0.05 0.05 0.04 0.09 0.14 0.27 0.23 0.17 0.07 0.18 0.09 0.11 0.15 0.08 0.04 0.03 0.02

GFSMA_prec_precacc_057.txt.gz
Total_Precipitation_Accumulation
0.03 0.01 0.00 0.00 0.00 0.00 0.00 0.00 0.00 0.00 0.00 0.00 0.00 0.00 0.00 0.00 0.00 0.00 0.00 0.00 0.00 0.00 0.01 0.00 0.00 0.00 0.00 0.00 0.00 0.00 0.01 0.07 0.09 0.16 0.20 0.16 0.16 0.19 0.24 0.24 0.24 0.17 0.17
0.01 0.01 0.01 0.00 0.00 0.00 0.00 0.00 0.00 0.00 0.00 0.00 0.00 0.00 0.00 0.00 0.00 0.00 0.00 0.00 0.00 0.00 0.00 0.00 0.00 0.00 0.00 0.00 0.00 0.00 0.00 0.00 0.03 0.06 0.19 0.18 0.15 0.19 0.19 0.18 0.23 0.27 0.20
0.00 0.01 0.00 0.01 0.00 0.00 0.00 0.00 0.00 0.00 0.00 0.00 0.00 0.00 0.00 0.00 0.00 0.00 0.00 0.00 0.00 0.00 0.00 0.00 0.00 0.00 0.00 0.00 0.00 0.00 0.00 0.00 0.01 0.05 0.08 0.18 0.16 0.14 0.19 0.20 0.24 0.29 0.30
0.03 0.01 0.02 0.00 0.00 0.00 0.00 0.00 0.00 0.00 0.00 0.00 0.00 0.00 0.00 0.00 0.00 0.00 0.00 0.00 0.00 0.00 0.00 0.00 0.00 0.00 0.00 0.00 0.00 0.00 0.00 0.00 0.00 0.00 0.01 0.08 0.27 0.23 0.15 0.20 0.33 0.37 0.37
0.08 0.04 0.01 0.00 0.01 0.02 0.00 0.00 0.00 0.00 0.01 0.00 0.00 0.00 0.00 0.00 0.00 0.00 0.00 0.00 0.00 0.00 0.00 0.00 0.00 0.00 0.00 0.00 0.00 0.00 0.00 0.00 0.00 0.01 0.01 0.00 0.03 0.21 0.32 0.30 0.31 0.45 0.47
0.08 0.07 0.05 0.03 0.04 0.01 0.00 0.00 0.00 0.00 0.00 0.00 0.00 0.00 0.00 0.00 0.00 0.00 0.00 0.00 0.00 0.00 0.00 0.00 0.00 0.00 0.00 0.00 0.00 0.00 0.00 0.00 0.00 0.01 0.01 0.00 0.01 0.01 0.05 0.18 0.37 0.55 0.63
0.04 0.07 0.09 0.07 0.08 0.00 0.00 0.00 0.00 0.00 0.00 0.00 0.00 0.00 0.00 0.00 0.00 0.00 0.00 0.00 0.00 0.00 0.00 0.00 0.00 0.00 0.00 0.00 0.00 0.00 0.00 0.00 0.00 0.00 0.00 0.01 0.01 0.00 0.00 0.03 0.13 0.28 0.49
0.04 0.04 0.07 0.04 0.03 0.00 0.00 0.00 0.00 0.00 0.00 0.00 0.00 0.01 0.00 0.00 0.00 0.00 0.00 0.01 0.00 0.01 0.01 0.00 0.00 0.00 0.00 0.00 0.00 0.00 0.00 0.00 0.00 0.00 0.00 0.00 0.01 0.01 0.00 0.01 0.04 0.17 0.34
0.03 0.00 0.04 0.01 0.00 0.00 0.00 0.00 0.00 0.00 0.00 0.00 0.00 0.02 0.02 0.00 0.00 0.00 0.00 0.01 0.02 0.01 0.02 0.02 0.02 0.01 0.00 0.00 0.00 0.00 0.00 0.00 0.00 0.00 0.00 0.00 0.00 0.01 0.02 0.01 0.02 0.02 0.07
0.05 0.02 0.01 0.00 0.00 0.00 0.00 0.00 0.00 0.00 0.00 0.00 0.00 0.00 0.00 0.02 0.05 0.03 0.00 0.00 0.00 0.02 0.03 0.03 0.04 0.07 0.08 0.05 0.03 0.02 0.00 0.00 0.00 0.00 0.00 0.00 0.00 0.00 0.01 0.03 0.02 0.02 0.02
0.03 0.03 0.01 0.03 0.01 0.01 0.01 0.00 0.00 0.00 0.00 0.00 0.00 0.00 0.00 0.01 0.02 0.07 0.05 0.01 0.02 0.02 0.03 0.05 0.05 0.07 0.11 0.13 0.14 0.12 0.07 0.03 0.01 0.00 0.00 0.00 0.01 0.01 0.01 0.02 0.03 0.03 0.03
0.02 0.04 0.04 0.03 0.04 0.04 0.05 0.04 0.04 0.05 0.04 0.02 0.02 0.03 0.04 0.05 0.07 0.10 0.08 0.04 0.04 0.04 0.07 0.16 0.19 0.15 0.17 0.14 0.14 0.13 0.10 0.05 0.03 0.03 0.01 0.01 0.01 0.01 0.01 0.01 0.02 0.03 0.04
0.05 0.07 0.14 0.08 0.05 0.07 0.06 0.08 0.10 0.07 0.05 0.04 0.05 0.11 0.17 0.17 0.09 0.08 0.13 0.12 0.11 0.04 0.10 0.12 0.12 0.09 0.17 0.30 0.29 0.27 0.21 0.16 0.11 0.05 0.01 0.01 0.01 0.00 0.01 0.00 0.03 0.03 0.04
0.10 0.12 0.13 0.21 0.13 0.11 0.10 0.08 0.07 0.08 0.11 0.14 0.17 0.16 0.11 0.09 0.10 0.14 0.24 0.32 0.26 0.12 0.08 0.07 0.04 0.08 0.08 0.12 0.21 0.22 0.12 0.12 0.16 0.17 0.15 0.09 0.03 0.01 0.01 0.01 0.01 0.04 0.06
0.34 0.29 0.34 0.34 0.27 0.16 0.08 0.06 0.08 0.08 0.09 0.13 0.18 0.21 0.23 0.22 0.15 0.13 0.16 0.25 0.50 0.39 0.08 0.02 0.04 0.04 0.07 0.10 0.12 0.18 0.21 0.16 0.15 0.14 0.11 0.12 0.14 0.10 0.04 0.02 0.01 0.03 0.05
0.35 0.43 0.41 0.29 0.14 0.05 0.03 0.03 0.03 0.08 0.19 0.25 0.26 0.28 0.21 0.15 0.13 0.11 0.13 0.15 0.16 0.22 0.13 0.00 0.00 0.00 0.00 0.01 0.03 0.05 0.09 0.16 0.16 0.17 0.21 0.09 0.04 0.10 0.15 0.13 0.03 0.01 0.03
0.35 0.38 0.17 0.06 0.03 0.04 0.07 0.13 0.21 0.25 0.27 0.30 0.26 0.18 0.11 0.08 0.05 0.03 0.02 0.00 0.01 0.02 0.04 0.00 0.00 0.00 0.00 0.00 0.00 0.00 0.01 0.03 0.06 0.09 0.17 0.18 0.13 0.14 0.13 0.16 0.16 0.06 0.01
0.14 0.09 0.07 0.10 0.14 0.23 0.32 0.36 0.28 0.23 0.21 0.18 0.13 0.09 0.05 0.03 0.01 0.00 0.00 0.00 0.00 0.00 0.00 0.00 0.00 0.00 0.00 0.00 0.00 0.00 0.00 0.00 0.01 0.03 0.08 0.18 0.25 0.20 0.17 0.17 0.17 0.14 0.06
0.12 0.10 0.10 0.13 0.19 0.21 0.18 0.14 0.14 0.15 0.15 0.12 0.06 0.03 0.01 0.01 0.00 0.00 0.00 0.00 0.01 0.00 0.01 0.03 0.01 0.00 0.00 0.00 0.01 0.01 0.01 0.00 0.00 0.00 0.01 0.04 0.08 0.12 0.16 0.17 0.15 0.15 0.13
0.07 0.06 0.05 0.05 0.06 0.10 0.12 0.13 0.14 0.13 0.08 0.03 0.01 0.01 0.01 0.01 0.01 0.01 0.01 0.01 0.02 0.03 0.03 0.04 0.03 0.03 0.02 0.01 0.02 0.04 0.04 0.03 0.02 0.01 0.01 0.01 0.03 0.05 0.06 0.10 0.13 0.11 0.10
0.04 0.03 0.05 0.11 0.14 0.12 0.11 0.09 0.05 0.03 0.01 0.01 0.00 0.00 0.00 0.00 0.00 0.00 0.01 0.02 0.04 0.07 0.07 0.07 0.05 0.04 0.03 0.02 0.05 0.07 0.09 0.05 0.02 0.02 0.03 0.03 0.04 0.04 0.04 0.07 0.10 0.13 0.09
0.05 0.08 0.17 0.19 0.15 0.12 0.11 0.07 0.04 0.02 0.01 0.00 0.00 0.00 0.00 0.00 0.00 0.00 0.01 0.02 0.04 0.10 0.16 0.12 0.09 0.08 0.05 0.07 0.08 0.09 0.10 0.08 0.06 0.04 0.08 0.06 0.05 0.07 0.08 0.13 0.17 0.20 0.24
0.25 0.33 0.25 0.18 0.12 0.06 0.05 0.02 0.01 0.00 0.00 0.00 0.00 0.00 0.00 0.00 0.00 0.00 0.00 0.01 0.02 0.03 0.09 0.13 0.14 0.09 0.10 0.08 0.10 0.12 0.14 0.15 0.11 0.04 0.06 0.05 0.04 0.05 0.02 0.01 0.02 0.03 0.10
0.33 0.23 0.12 0.04 0.01 0.00 0.00 0.00 0.00 0.00 0.00 0.00 0.00 0.00 0.00 0.00 0.01 0.02 0.11 0.08 0.02 0.01 0.02 0.04 0.08 0.06 0.06 0.06 0.09 0.12 0.14 0.13 0.06 0.01 0.03 0.08 0.02 0.03 0.03 0.00 0.00 0.00 0.03
0.06 0.00 0.00 0.00 0.00 0.00 0.00 0.00 0.00 0.00 0.00 0.00 0.00 0.00 0.01 0.01 0.02 0.08 0.10 0.06 0.03 0.02 0.01 0.02 0.06 0.10 0.12 0.10 0.11 0.23 0.18 0.21 0.15 0.05 0.04 0.09 0.04 0.04 0.02 0.01 0.00 0.00 0.01
0.00 0.00 0.00 0.00 0.00 0.00 0.01 0.00 0.00 0.01 0.01 0.02 0.02 0.01 0.01 0.05 0.12 0.09 0.15 0.12 0.12 0.04 0.03 0.05 0.05 0.06 0.05 0.05 0.05 0.09 0.15 0.28 0.24 0.17 0.07 0.18 0.09 0.11 0.15 0.08 0.04 0.03 0.02

GFSMA_prec_precacc_063.txt.gz
Total_Precipitation_Accumulation
0.03 0.01 0.00 0.00 0.00 0.00 0.00 0.00 0.00 0.00 0.00 0.00 0.00 0.00 0.00 0.00 0.00 0.00 0.00 0.00 0.00 0.00 0.01 0.00 0.00 0.00 0.00 0.00 0.00 0.00 0.01 0.07 0.09 0.16 0.20 0.16 0.16 0.19 0.24 0.24 0.24 0.17 0.17
0.01 0.01 0.01 0.00 0.00 0.00 0.00 0.00 0.00 0.00 0.00 0.00 0.00 0.00 0.00 0.00 0.00 0.00 0.00 0.00 0.00 0.00 0.00 0.00 0.00 0.00 0.00 0.00 0.00 0.00 0.00 0.00 0.03 0.06 0.19 0.18 0.15 0.19 0.19 0.18 0.23 0.27 0.20
0.00 0.01 0.01 0.01 0.00 0.00 0.00 0.00 0.00 0.00 0.00 0.00 0.00 0.00 0.00 0.00 0.00 0.00 0.00 0.00 0.00 0.00 0.00 0.00 0.00 0.00 0.00 0.00 0.00 0.00 0.00 0.00 0.01 0.05 0.08 0.18 0.16 0.14 0.19 0.20 0.24 0.29 0.30
0.03 0.01 0.04 0.03 0.00 0.00 0.00 0.00 0.00 0.00 0.00 0.00 0.00 0.00 0.00 0.00 0.00 0.00 0.00 0.00 0.00 0.00 0.00 0.00 0.00 0.00 0.00 0.00 0.00 0.00 0.00 0.00 0.00 0.00 0.01 0.08 0.27 0.23 0.15 0.20 0.33 0.37 0.37
0.08 0.04 0.02 0.00 0.01 0.02 0.00 0.00 0.00 0.00 0.01 0.00 0.00 0.00 0.00 0.00 0.00 0.00 0.00 0.00 0.00 0.00 0.00 0.00 0.00 0.00 0.00 0.00 0.00 0.00 0.00 0.00 0.00 0.01 0.01 0.00 0.03 0.21 0.32 0.30 0.31 0.45 0.47
0.08 0.07 0.05 0.03 0.05 0.05 0.00 0.00 0.00 0.00 0.00 0.00 0.00 0.00 0.00 0.00 0.00 0.00 0.00 0.00 0.00 0.00 0.00 0.00 0.00 0.00 0.00 0.00 0.00 0.00 0.00 0.00 0.00 0.01 0.01 0.00 0.01 0.01 0.05 0.18 0.37 0.55 0.63
0.05 0.07 0.09 0.07 0.09 0.04 0.01 0.00 0.00 0.00 0.00 0.00 0.00 0.00 0.00 0.00 0.00 0.00 0.00 0.00 0.00 0.00 0.00 0.00 0.00 0.00 0.00 0.00 0.00 0.00 0.00 0.00 0.00 0.00 0.00 0.01 0.01 0.00 0.00 0.03 0.13 0.28 0.49
0.04 0.04 0.07 0.04 0.03 0.02 0.02 0.00 0.00 0.00 0.00 0.00 0.00 0.01 0.00 0.00 0.00 0.00 0.00 0.01 0.00 0.01 0.01 0.00 0.00 0.00 0.00 0.00 0.00 0.00 0.00 0.00 0.00 0.00 0.00 0.00 0.01 0.01 0.00 0.01 0.04 0.17 0.34
0.03 0.00 0.04 0.01 0.00 0.00 0.00 0.00 0.00 0.01 0.01 0.00 0.00 0.02 0.02 0.00 0.00 0.00 0.00 0.01 0.02 0.01 0.02 0.02 0.02 0.01 0.00 0.00 0.00 0.00 0.00 0.00 0.00 0.00 0.00 0.00 0.00 0.01 0.02 0.01 0.02 0.02 0.07
0.05 0.02 0.01 0.01 0.00 0.00 0.00 0.00 0.02 0.02 0.03 0.02 0.01 0.00 0.00 0.02 0.05 0.03 0.00 0.00 0.00 0.02 0.03 0.03 0.04 0.07 0.08 0.05 0.03 0.02 0.00 0.00 0.00 0.00 0.00 0.00 0.00 0.00 0.01 0.03 0.02 0.02 0.02
0.03 0.03 0.02 0.06 0.02 0.01 0.04 0.05 0.03 0.05 0.05 0.03 0.03 0.02 0.03 0.05 0.06 0.08 0.06 0.04 0.03 0.03 0.03 0.05 0.05 0.07 0.11 0.13 0.14 0.12 0.07 0.03 0.01 0.00 0.00 0.00 0.01 0.01 0.01 0.02 0.03 0.03 0.03
0.02 0.04 0.05 0.03 0.06 0.04 0.09 0.12 0.16 0.12 0.10 0.08 0.08 0.12 0.14 0.14 0.12 0.17 0.15 0.07 0.05 0.05 0.07 0.16 0.20 0.15 0.17 0.14 0.14 0.13 0.10 0.05 0.03 0.03 0.01 0.01 0.01 0.01 0.01 0.01 0.02 0.03 0.04
0.05 0.07 0.15 0.11 0.09 0.20 0.24 0.31 0.29 0.20 0.18 0.20 0.28 0.24 0.22 0.22 0.15 0.14 0.18 0.16 0.13 0.04 0.11 0.12 0.12 0.09 0.17 0.30 0.29 0.27 0.21 0.16 0.11 0.05 0.01 0.01 0.01 0.00 0.01 0.00 0.03 0.03 0.04
0.10 0.13 0.21 0.35 0.32 0.32 0.32 0.34 0.40 0.51 0.31 0.24 0.23 0.22 0.20 0.20 0.23 0.24 0.29 0.34 0.27 0.12 0.08 0.07 0.04 0.08 0.08 0.12 0.21 0.22 0.12 0.12 0.16 0.17 0.15 0.09 0.03 0.01 0.01 0.01 0.01 0.04 0.06
0.36 0.30 0.36 0.47 0.48 0.40 0.51 0.56 0.47 0.25 0.14 0.15 0.22 0.27 0.29 0.26 0.17 0.14 0.17 0.26 0.52 0.41 0.09 0.02 0.04 0.04 0.07 0.10 0.12 0.18 0.21 0.16 0.15 0.14 0.11 0.12 0.14 0.10 0.04 0.02 0.01 0.03 0.05
0.47 0.51 0.48 0.47 0.41 0.31 0.31 0.33 0.21 0.13 0.21 0.26 0.28 0.30 0.22 0.18 0.16 0.14 0.16 0.17 0.17 0.23 0.14 0.00 0.00 0.00 0.00 0.01 0.03 0.05 0.09 0.16 0.16 0.17 0.21 0.09 0.04 0.10 0.15 0.13 0.03 0.01 0.03
0.63 0.65 0.41 0.27 0.20 0.31 0.28 0.21 0.27 0.27 0.28 0.31 0.29 0.23 0.16 0.12 0.08 0.05 0.03 0.01 0.01 0.02 0.04 0.00 0.00 0.00 0.00 0.00 0.00 0.00 0.01 0.03 0.06 0.09 0.17 0.18 0.13 0.14 0.13 0.16 0.16 0.06 0.01
0.74 0.53 0.30 0.21 0.22 0.28 0.37 0.41 0.30 0.25 0.22 0.20 0.16 0.12 0.07 0.04 0.02 0.01 0.01 0.01 0.00 0.00 0.00 0.00 0.00 0.00 0.00 0.00 0.00 0.00 0.00 0.00 0.01 0.03 0.08 0.18 0.26 0.20 0.18 0.17 0.17 0.14 0.06
0.36 0.25 0.24 0.23 0.29 0.26 0.22 0.15 0.15 0.17 0.18 0.15 0.09 0.05 0.03 0.02 0.02 0.01 0.00 0.00 0.01 0.00 0.01 0.03 0.01 0.00 0.00 0.00 0.01 0.01 0.01 0.01 0.00 0.01 0.01 0.04 0.08 0.12 0.16 0.17 0.16 0.15 0.14
0.15 0.13 0.09 0.09 0.11 0.14 0.14 0.13 0.15 0.13 0.08 0.03 0.01 0.01 0.01 0.01 0.01 0.01 0.01 0.01 0.02 0.03 0.03 0.04 0.04 0.03 0.02 0.01 0.03 0.04 0.04 0.03 0.03 0.02 0.02 0.01 0.04 0.05 0.07 0.11 0.14 0.12 0.11
0.11 0.11 0.10 0.15 0.18 0.16 0.13 0.11 0.06 0.04 0.02 0.01 0.00 0.01 0.00 0.01 0.01 0.00 0.01 0.02 0.04 0.07 0.07 0.07 0.05 0.04 0.03 0.02 0.05 0.07 0.09 0.05 0.03 0.03 0.04 0.03 0.04 0.04 0.05 0.08 0.12 0.15 0.12
0.13 0.13 0.23 0.25 0.20 0.16 0.16 0.10 0.05 0.02 0.01 0.00 0.00 0.00 0.00 0.00 0.00 0.00 0.01 0.02 0.04 0.11 0.16 0.12 0.09 0.08 0.05 0.07 0.08 0.09 0.11 0.09 0.07 0.05 0.09 0.07 0.07 0.07 0.09 0.13 0.18 0.21 0.25
0.32 0.38 0.29 0.22 0.16 0.09 0.08 0.03 0.02 0.00 0.00 0.00 0.00 0.00 0.00 0.00 0.00 0.00 0.00 0.01 0.02 0.03 0.09 0.13 0.14 0.09 0.10 0.08 0.10 0.12 0.15 0.17 0.13 0.05 0.08 0.07 0.05 0.07 0.03 0.03 0.03 0.03 0.10
0.36 0.25 0.15 0.06 0.02 0.01 0.01 0.00 0.00 0.00 0.00 0.00 0.00 0.00 0.00 0.00 0.01 0.02 0.11 0.08 0.02 0.01 0.02 0.04 0.08 0.06 0.06 0.06 0.09 0.12 0.16 0.15 0.08 0.02 0.05 0.11 0.03 0.04 0.04 0.01 0.00 0.01 0.03
0.08 0.02 0.02 0.01 0.00 0.01 0.00 0.00 0.00 0.00 0.00 0.00 0.00 0.00 0.01 0.01 0.02 0.08 0.10 0.06 0.03 0.02 0.01 0.02 0.06 0.10 0.12 0.10 0.11 0.24 0.20 0.24 0.18 0.06 0.05 0.11 0.05 0.05 0.02 0.01 0.01 0.00 0.01
0.01 0.01 0.00 0.00 0.00 0.00 0.01 0.00 0.00 0.01 0.01 0.02 0.02 0.01 0.01 0.05 0.12 0.09 0.15 0.12 0.12 0.04 0.03 0.05 0.05 0.06 0.05 0.05 0.05 0.09 0.16 0.32 0.28 0.21 0.07 0.20 0.10 0.12 0.18 0.09 0.05 0.03 0.02

GFSMA_prec_precacc_066.txt.gz
Total_Precipitation_Accumulation
0.03 0.01 0.00 0.00 0.00 0.00 0.00 0.00 0.00 0.00 0.00 0.00 0.00 0.00 0.00 0.00 0.00 0.00 0.00 0.00 0.00 0.00 0.01 0.00 0.00 0.00 0.00 0.00 0.00 0.00 0.01 0.07 0.09 0.16 0.20 0.16 0.16 0.19 0.24 0.24 0.24 0.17 0.17
0.01 0.01 0.01 0.00 0.00 0.00 0.00 0.00 0.00 0.00 0.00 0.00 0.00 0.00 0.00 0.00 0.00 0.00 0.00 0.00 0.00 0.00 0.00 0.00 0.00 0.00 0.00 0.00 0.00 0.00 0.00 0.00 0.03 0.06 0.19 0.18 0.15 0.19 0.19 0.18 0.23 0.27 0.20
0.00 0.01 0.01 0.01 0.00 0.00 0.00 0.00 0.00 0.00 0.00 0.00 0.00 0.00 0.00 0.00 0.00 0.00 0.00 0.00 0.00 0.00 0.00 0.00 0.00 0.00 0.00 0.00 0.00 0.00 0.00 0.00 0.01 0.05 0.08 0.18 0.16 0.14 0.19 0.20 0.24 0.29 0.30
0.03 0.01 0.04 0.03 0.00 0.00 0.00 0.00 0.00 0.00 0.00 0.00 0.00 0.00 0.00 0.00 0.00 0.00 0.00 0.00 0.00 0.00 0.00 0.00 0.00 0.00 0.00 0.00 0.00 0.00 0.00 0.00 0.00 0.00 0.01 0.08 0.27 0.23 0.15 0.20 0.33 0.37 0.37
0.08 0.04 0.02 0.00 0.01 0.02 0.00 0.00 0.00 0.00 0.01 0.00 0.00 0.00 0.00 0.00 0.00 0.00 0.00 0.00 0.00 0.00 0.00 0.00 0.00 0.00 0.00 0.00 0.00 0.00 0.00 0.00 0.00 0.01 0.01 0.00 0.03 0.21 0.32 0.30 0.31 0.45 0.47
0.08 0.07 0.05 0.03 0.05 0.05 0.00 0.00 0.00 0.00 0.00 0.00 0.00 0.00 0.00 0.00 0.00 0.00 0.00 0.00 0.00 0.00 0.00 0.00 0.00 0.00 0.00 0.00 0.00 0.00 0.00 0.00 0.00 0.01 0.01 0.00 0.01 0.01 0.05 0.18 0.37 0.55 0.63
0.05 0.07 0.09 0.08 0.10 0.05 0.01 0.00 0.00 0.00 0.00 0.00 0.00 0.00 0.00 0.00 0.00 0.00 0.00 0.00 0.00 0.00 0.00 0.00 0.00 0.00 0.00 0.00 0.00 0.00 0.00 0.00 0.00 0.00 0.00 0.01 0.01 0.00 0.00 0.03 0.13 0.28 0.49
0.05 0.08 0.09 0.05 0.05 0.04 0.02 0.00 0.00 0.00 0.00 0.00 0.00 0.01 0.00 0.00 0.00 0.00 0.00 0.01 0.00 0.01 0.01 0.00 0.00 0.00 0.00 0.00 0.00 0.00 0.00 0.00 0.00 0.00 0.00 0.00 0.01 0.01 0.00 0.01 0.04 0.17 0.34
0.05 0.03 0.10 0.07 0.05 0.01 0.00 0.00 0.00 0.01 0.01 0.01 0.00 0.02 0.02 0.00 0.00 0.00 0.00 0.01 0.02 0.01 0.02 0.02 0.02 0.01 0.00 0.00 0.00 0.00 0.00 0.00 0.00 0.00 0.00 0.00 0.00 0.01 0.02 0.01 0.02 0.02 0.07
0.05 0.02 0.01 0.01 0.02 0.00 0.00 0.00 0.02 0.02 0.03 0.02 0.01 0.01 0.01 0.02 0.05 0.03 0.00 0.00 0.00 0.02 0.03 0.03 0.04 0.07 0.08 0.05 0.03 0.02 0.00 0.00 0.00 0.00 0.00 0.00 0.00 0.00 0.01 0.03 0.02 0.02 0.02
0.03 0.03 0.02 0.06 0.02 0.01 0.04 0.05 0.04 0.05 0.06 0.05 0.05 0.03 0.04 0.05 0.06 0.09 0.07 0.04 0.03 0.03 0.03 0.05 0.05 0.07 0.11 0.13 0.14 0.12 0.07 0.03 0.01 0.00 0.00 0.00 0.01 0.01 0.01 0.02 0.03 0.03 0.03
0.02 0.04 0.05 0.03 0.06 0.04 0.09 0.12 0.16 0.15 0.19 0.15 0.10 0.13 0.15 0.15 0.13 0.19 0.18 0.07 0.05 0.05 0.07 0.16 0.20 0.15 0.17 0.14 0.14 0.13 0.10 0.05 0.03 0.03 0.01 0.01 0.01 0.01 0.01 0.01 0.02 0.03 0.04
0.05 0.07 0.15 0.11 0.09 0.20 0.24 0.31 0.33 0.30 0.33 0.41 0.51 0.48 0.35 0.26 0.17 0.16 0.21 0.18 0.14 0.04 0.11 0.12 0.12 0.09 0.17 0.30 0.29 0.27 0.21 0.16 0.11 0.05 0.01 0.01 0.01 0.00 0.01 0.01 0.03 0.03 0.04
0.10 0.13 0.21 0.35 0.32 0.32 0.32 0.35 0.46 0.63 0.73 0.67 0.51 0.38 0.28 0.23 0.27 0.31 0.37 0.39 0.29 0.12 0.08 0.07 0.04 0.08 0.08 0.12 0.21 0.22 0.12 0.12 0.16 0.17 0.15 0.09 0.03 0.02 0.01 0.02 0.02 0.05 0.06
0.36 0.30 0.36 0.47 0.48 0.40 0.51 0.58 0.56 0.41 0.31 0.25 0.23 0.28 0.31 0.29 0.22 0.17 0.19 0.27 0.52 0.41 0.09 0.02 0.04 0.04 0.07 0.10 0.12 0.18 0.21 0.16 0.15 0.14 0.11 0.12 0.14 0.10 0.04 0.03 0.02 0.03 0.05
0.47 0.52 0.50 0.49 0.42 0.31 0.32 0.35 0.31 0.25 0.29 0.29 0.28 0.31 0.24 0.20 0.17 0.16 0.18 0.17 0.17 0.23 0.14 0.00 0.00 0.00 0.00 0.01 0.03 0.05 0.09 0.16 0.16 0.17 0.21 0.09 0.04 0.10 0.15 0.13 0.04 0.02 0.04
0.64 0.68 0.48 0.36 0.29 0.42 0.42 0.31 0.33 0.34 0.34 0.36 0.31 0.25 0.18 0.13 0.09 0.06 0.03 0.02 0.01 0.02 0.04 0.00 0.00 0.00 0.00 0.00 0.00 0.00 0.01 0.03 0.06 0.09 0.17 0.18 0.13 0.14 0.13 0.16 0.16 0.07 0.02
0.75 0.58 0.39 0.30 0.30 0.35 0.50 0.57 0.40 0.31 0.26 0.23 0.19 0.14 0.08 0.05 0.03 0.02 0.02 0.02 0.01 0.00 0.01 0.00 0.00 0.00 0.00 0.00 0.00 0.00 0.00 0.00 0.01 0.03 0.08 0.18 0.26 0.20 0.18 0.17 0.17 0.14 0.06
0.39 0.34 0.35 0.31 0.33 0.30 0.23 0.20 0.19 0.21 0.20 0.16 0.10 0.06 0.04 0.03 0.02 0.01 0.01 0.01 0.01 0.00 0.01 0.03 0.01 0.00 0.00 0.00 0.01 0.01 0.01 0.01 0.00 0.01 0.01 0.04 0.08 0.12 0.16 0.17 0.16 0.16 0.14
0.17 0.19 0.15 0.14 0.14 0.16 0.16 0.16 0.18 0.15 0.09 0.04 0.01 0.01 0.02 0.02 0.01 0.01 0.01 0.01 0.02 0.03 0.03 0.04 0.04 0.03 0.02 0.01 0.03 0.04 0.04 0.03 0.03 0.02 0.02 0.01 0.04 0.05 0.07 0.11 0.14 0.12 0.11
0.13 0.16 0.15 0.18 0.20 0.18 0.18 0.16 0.10 0.05 0.03 0.02 0.01 0.01 0.01 0.02 0.01 0.01 0.01 0.02 0.04 0.07 0.07 0.07 0.05 0.04 0.03 0.02 0.05 0.07 0.09 0.05 0.03 0.03 0.04 0.03 0.04 0.04 0.05 0.08 0.12 0.15 0.12
0.23 0.26 0.36 0.35 0.25 0.22 0.27 0.17 0.09 0.04 0.02 0.02 0.01 0.00 0.01 0.01 0.01 0.01 0.02 0.02 0.04 0.11 0.16 0.12 0.09 0.08 0.05 0.07 0.08 0.09 0.11 0.09 0.07 0.05 0.09 0.07 0.07 0.07 0.09 0.13 0.18 0.21 0.26
0.43 0.49 0.41 0.32 0.21 0.14 0.17 0.09 0.06 0.02 0.02 0.02 0.01 0.00 0.00 0.00 0.01 0.00 0.01 0.01 0.02 0.03 0.09 0.13 0.14 0.09 0.10 0.08 0.10 0.12 0.15 0.17 0.13 0.05 0.08 0.08 0.05 0.07 0.03 0.03 0.03 0.04 0.11
0.46 0.35 0.23 0.12 0.09 0.08 0.10 0.06 0.04 0.01 0.02 0.01 0.01 0.01 0.00 0.00 0.01 0.02 0.11 0.08 0.02 0.01 0.02 0.04 0.08 0.06 0.06 0.06 0.09 0.12 0.16 0.15 0.08 0.02 0.05 0.11 0.03 0.04 0.04 0.01 0.01 0.02 0.07
0.13 0.05 0.05 0.05 0.05 0.05 0.05 0.03 0.01 0.00 0.00 0.01 0.00 0.00 0.01 0.01 0.02 0.08 0.10 0.06 0.03 0.02 0.01 0.02 0.06 0.10 0.12 0.10 0.11 0.24 0.20 0.24 0.18 0.06 0.05 0.11 0.05 0.05 0.02 0.01 0.01 0.01 0.04
0.03 0.03 0.03 0.02 0.04 0.03 0.04 0.01 0.01 0.01 0.01 0.02 0.02 0.01 0.01 0.05 0.12 0.09 0.15 0.12 0.12 0.04 0.03 0.05 0.05 0.06 0.05 0.05 0.05 0.09 0.16 0.32 0.29 0.21 0.07 0.20 0.10 0.13 0.20 0.09 0.05 0.05 0.06

GFSMA_prec_precacc_069.txt.gz
Total_Precipitation_Accumulation
0.03 0.01 0.00 0.00 0.00 0.00 0.00 0.00 0.00 0.00 0.00 0.00 0.00 0.00 0.00 0.00 0.00 0.00 0.00 0.00 0.00 0.00 0.01 0.00 0.00 0.00 0.00 0.00 0.00 0.00 0.01 0.07 0.09 0.16 0.20 0.16 0.16 0.19 0.24 0.24 0.24 0.17 0.17
0.01 0.01 0.01 0.00 0.00 0.00 0.00 0.00 0.00 0.00 0.00 0.00 0.00 0.00 0.00 0.00 0.00 0.00 0.00 0.00 0.00 0.00 0.00 0.00 0.00 0.00 0.00 0.00 0.00 0.00 0.00 0.00 0.03 0.06 0.19 0.18 0.15 0.19 0.19 0.18 0.23 0.27 0.20
0.00 0.01 0.01 0.01 0.00 0.00 0.00 0.00 0.00 0.00 0.00 0.00 0.00 0.00 0.00 0.00 0.00 0.00 0.00 0.00 0.00 0.00 0.00 0.00 0.00 0.00 0.00 0.00 0.00 0.00 0.00 0.00 0.01 0.05 0.08 0.18 0.16 0.14 0.19 0.20 0.24 0.29 0.30
0.03 0.01 0.04 0.03 0.00 0.00 0.00 0.00 0.00 0.00 0.00 0.00 0.00 0.00 0.00 0.00 0.00 0.00 0.00 0.00 0.00 0.00 0.00 0.00 0.00 0.00 0.00 0.00 0.00 0.00 0.00 0.00 0.00 0.00 0.01 0.08 0.27 0.23 0.15 0.20 0.33 0.37 0.37
0.08 0.04 0.02 0.00 0.01 0.02 0.00 0.00 0.00 0.00 0.01 0.00 0.00 0.00 0.00 0.00 0.00 0.00 0.00 0.00 0.00 0.00 0.00 0.00 0.00 0.00 0.00 0.00 0.00 0.00 0.00 0.00 0.00 0.01 0.01 0.00 0.03 0.21 0.32 0.30 0.31 0.45 0.47
0.08 0.07 0.05 0.03 0.05 0.05 0.00 0.00 0.00 0.00 0.00 0.00 0.00 0.00 0.00 0.00 0.00 0.00 0.00 0.00 0.00 0.00 0.00 0.00 0.00 0.00 0.00 0.00 0.00 0.00 0.00 0.00 0.00 0.01 0.01 0.00 0.01 0.01 0.05 0.18 0.37 0.55 0.63
0.05 0.07 0.09 0.08 0.10 0.05 0.02 0.00 0.01 0.01 0.01 0.00 0.00 0.00 0.00 0.00 0.00 0.00 0.00 0.00 0.00 0.00 0.00 0.00 0.00 0.00 0.00 0.00 0.00 0.00 0.00 0.00 0.00 0.00 0.00 0.01 0.01 0.00 0.00 0.03 0.13 0.28 0.49
0.05 0.08 0.09 0.05 0.05 0.05 0.05 0.03 0.04 0.02 0.03 0.01 0.01 0.01 0.00 0.00 0.00 0.00 0.00 0.01 0.00 0.01 0.01 0.00 0.00 0.00 0.00 0.00 0.00 0.00 0.00 0.00 0.00 0.00 0.00 0.00 0.01 0.01 0.00 0.01 0.04 0.17 0.34
0.05 0.03 0.11 0.09 0.08 0.05 0.05 0.06 0.06 0.04 0.03 0.02 0.01 0.03 0.02 0.00 0.00 0.00 0.00 0.01 0.02 0.01 0.02 0.02 0.02 0.01 0.00 0.00 0.00 0.00 0.00 0.00 0.00 0.00 0.00 0.00 0.00 0.01 0.02 0.01 0.02 0.02 0.07
0.06 0.02 0.02 0.03 0.05 0.05 0.05 0.05 0.06 0.03 0.03 0.03 0.02 0.01 0.01 0.02 0.05 0.03 0.00 0.00 0.00 0.02 0.03 0.03 0.04 0.07 0.08 0.05 0.03 0.02 0.00 0.00 0.00 0.00 0.00 0.00 0.00 0.00 0.01 0.03 0.02 0.02 0.02
0.04 0.04 0.02 0.07 0.03 0.02 0.05 0.06 0.05 0.05 0.06 0.05 0.05 0.04 0.04 0.05 0.06 0.09 0.07 0.04 0.04 0.03 0.03 0.05 0.05 0.07 0.11 0.13 0.14 0.12 0.07 0.03 0.01 0.00 0.00 0.00 0.01 0.01 0.02 0.03 0.03 0.03 0.03
0.02 0.05 0.05 0.04 0.06 0.04 0.09 0.12 0.16 0.15 0.19 0.18 0.14 0.17 0.17 0.15 0.14 0.19 0.19 0.08 0.06 0.06 0.08 0.16 0.20 0.15 0.17 0.14 0.14 0.13 0.10 0.05 0.03 0.03 0.01 0.01 0.01 0.01 0.02 0.03 0.03 0.04 0.04
0.05 0.07 0.15 0.11 0.09 0.20 0.24 0.31 0.33 0.30 0.33 0.43 0.56 0.54 0.46 0.41 0.25 0.22 0.25 0.22 0.19 0.10 0.13 0.12 0.12 0.09 0.17 0.30 0.29 0.27 0.21 0.16 0.11 0.05 0.01 0.01 0.01 0.00 0.01 0.01 0.04 0.05 0.06
0.10 0.13 0.21 0.35 0.32 0.32 0.32 0.35 0.46 0.63 0.73 0.68 0.62 0.54 0.43 0.34 0.34 0.35 0.42 0.46 0.34 0.15 0.09 0.07 0.04 0.08 0.08 0.12 0.21 0.22 0.12 0.12 0.16 0.17 0.15 0.09 0.03 0.02 0.02 0.03 0.02 0.06 0.07
0.36 0.30 0.36 0.47 0.48 0.40 0.51 0.58 0.56 0.41 0.32 0.28 0.31 0.36 0.36 0.30 0.23 0.20 0.23 0.31 0.54 0.42 0.10 0.02 0.04 0.04 0.07 0.10 0.12 0.18 0.21 0.16 0.15 0.14 0.11 0.12 0.14 0.10 0.04 0.03 0.03 0.04 0.06
0.47 0.52 0.50 0.49 0.42 0.31 0.32 0.35 0.31 0.25 0.29 0.31 0.30 0.32 0.25 0.20 0.18 0.17 0.19 0.20 0.20 0.24 0.15 0.00 0.00 0.00 0.00 0.01 0.03 0.05 0.09 0.16 0.16 0.17 0.21 0.09 0.04 0.10 0.15 0.13 0.04 0.03 0.04
0.64 0.68 0.48 0.36 0.29 0.43 0.47 0.36 0.36 0.36 0.37 0.39 0.35 0.28 0.21 0.16 0.10 0.07 0.04 0.02 0.02 0.02 0.04 0.00 0.00 0.00 0.00 0.00 0.00 0.00 0.01 0.03 0.06 0.09 0.17 0.18 0.13 0.14 0.13 0.16 0.16 0.07 0.02
0.75 0.58 0.39 0.31 0.33 0.39 0.57 0.72 0.62 0.53 0.48 0.43 0.34 0.21 0.12 0.08 0.05 0.03 0.02 0.03 0.02 0.01 0.01 0.01 0.00 0.00 0.00 0.00 0.00 0.00 0.00 0.00 0.01 0.03 0.08 0.18 0.26 0.20 0.18 0.17 0.17 0.14 0.06
0.39 0.34 0.35 0.31 0.34 0.34 0.34 0.33 0.33 0.34 0.33 0.29 0.19 0.11 0.07 0.05 0.04 0.03 0.03 0.03 0.02 0.01 0.01 0.03 0.01 0.00 0.00 0.00 0.01 0.01 0.01 0.01 0.00 0.01 0.01 0.04 0.08 0.12 0.16 0.17 0.16 0.16 0.14
0.17 0.19 0.15 0.15 0.15 0.18 0.21 0.22 0.26 0.25 0.17 0.09 0.05 0.04 0.04 0.04 0.04 0.03 0.02 0.02 0.02 0.03 0.03 0.04 0.04 0.03 0.02 0.01 0.03 0.04 0.04 0.03 0.03 0.02 0.02 0.01 0.04 0.05 0.07 0.11 0.14 0.12 0.11
0.13 0.16 0.15 0.18 0.21 0.19 0.20 0.20 0.15 0.08 0.05 0.06 0.04 0.03 0.02 0.05 0.04 0.02 0.02 0.02 0.04 0.08 0.08 0.07 0.05 0.04 0.03 0.02 0.05 0.07 0.09 0.05 0.03 0.03 0.04 0.03 0.04 0.04 0.05 0.08 0.12 0.15 0.12
0.23 0.26 0.36 0.36 0.27 0.25 0.35 0.24 0.13 0.06 0.03 0.03 0.03 0.01 0.03 0.04 0.02 0.03 0.02 0.03 0.04 0.11 0.16 0.12 0.09 0.08 0.05 0.07 0.08 0.09 0.11 0.09 0.07 0.05 0.09 0.07 0.07 0.07 0.09 0.13 0.18 0.21 0.26
0.45 0.54 0.44 0.37 0.26 0.18 0.25 0.20 0.14 0.04 0.03 0.03 0.02 0.02 0.02 0.03 0.04 0.00 0.01 0.02 0.02 0.04 0.09 0.13 0.14 0.09 0.10 0.08 0.10 0.12 0.15 0.17 0.13 0.05 0.08 0.08 0.05 0.07 0.03 0.03 0.03 0.04 0.11
0.47 0.37 0.26 0.16 0.13 0.14 0.17 0.10 0.09 0.02 0.03 0.03 0.03 0.02 0.02 0.02 0.01 0.02 0.11 0.08 0.02 0.01 0.02 0.04 0.08 0.06 0.06 0.06 0.09 0.12 0.16 0.15 0.08 0.02 0.05 0.11 0.03 0.04 0.04 0.01 0.01 0.02 0.07
0.15 0.07 0.07 0.07 0.07 0.08 0.10 0.05 0.03 0.01 0.02 0.04 0.03 0.03 0.03 0.02 0.02 0.09 0.10 0.06 0.03 0.02 0.01 0.02 0.06 0.10 0.12 0.10 0.11 0.24 0.20 0.24 0.18 0.06 0.05 0.11 0.05 0.05 0.02 0.01 0.01 0.01 0.04
0.06 0.05 0.05 0.05 0.08 0.05 0.09 0.04 0.03 0.02 0.04 0.06 0.06 0.04 0.02 0.05 0.12 0.10 0.15 0.12 0.12 0.04 0.03 0.05 0.05 0.06 0.05 0.05 0.05 0.09 0.16 0.32 0.29 0.21 0.07 0.20 0.10 0.13 0.20 0.09 0.05 0.05 0.06

GFSMA_prec_precacc_075.txt.gz
Total_Precipitation_Accumulation
0.04 0.02 0.02 0.00 0.00 0.00 0.00 0.00 0.00 0.00 0.00 0.00 0.00 0.00 0.00 0.00 0.00 0.00 0.00 0.00 0.00 0.00 0.01 0.00 0.00 0.00 0.00 0.00 0.00 0.00 0.01 0.07 0.09 0.16 0.20 0.16 0.16 0.19 0.24 0.24 0.24 0.17 0.17
0.01 0.02 0.02 0.01 0.00 0.00 0.00 0.00 0.00 0.00 0.00 0.00 0.00 0.00 0.00 0.00 0.00 0.00 0.00 0.00 0.00 0.00 0.00 0.00 0.00 0.00 0.00 0.00 0.00 0.00 0.00 0.00 0.03 0.06 0.19 0.18 0.15 0.19 0.19 0.18 0.23 0.27 0.20
0.00 0.01 0.01 0.01 0.00 0.00 0.00 0.00 0.00 0.00 0.00 0.00 0.00 0.00 0.00 0.00 0.00 0.00 0.00 0.00 0.00 0.00 0.00 0.00 0.00 0.00 0.00 0.00 0.00 0.00 0.00 0.00 0.01 0.05 0.08 0.18 0.16 0.14 0.19 0.20 0.24 0.29 0.30
0.03 0.01 0.04 0.03 0.00 0.00 0.00 0.00 0.00 0.00 0.00 0.00 0.00 0.00 0.00 0.00 0.00 0.00 0.00 0.00 0.00 0.00 0.00 0.00 0.00 0.00 0.00 0.00 0.00 0.00 0.00 0.00 0.00 0.00 0.01 0.08 0.27 0.23 0.15 0.20 0.33 0.37 0.37
0.08 0.04 0.02 0.00 0.01 0.02 0.00 0.00 0.00 0.00 0.01 0.00 0.00 0.00 0.00 0.00 0.00 0.00 0.00 0.00 0.00 0.00 0.00 0.00 0.00 0.00 0.00 0.00 0.00 0.00 0.00 0.00 0.00 0.01 0.01 0.00 0.03 0.21 0.32 0.30 0.31 0.45 0.47
0.08 0.07 0.05 0.03 0.05 0.05 0.00 0.00 0.00 0.00 0.00 0.00 0.00 0.00 0.00 0.00 0.00 0.00 0.00 0.00 0.00 0.00 0.00 0.00 0.00 0.00 0.00 0.00 0.00 0.00 0.00 0.00 0.00 0.01 0.01 0.00 0.01 0.01 0.05 0.18 0.37 0.55 0.63
0.05 0.07 0.09 0.08 0.10 0.05 0.02 0.00 0.01 0.03 0.01 0.00 0.00 0.00 0.00 0.00 0.00 0.00 0.00 0.00 0.00 0.00 0.00 0.00 0.00 0.00 0.00 0.00 0.00 0.00 0.00 0.01 0.00 0.00 0.00 0.01 0.01 0.00 0.00 0.03 0.13 0.28 0.49
0.05 0.08 0.09 0.05 0.05 0.05 0.05 0.03 0.04 0.03 0.05 0.05 0.03 0.03 0.02 0.01 0.00 0.00 0.00 0.01 0.00 0.01 0.01 0.00 0.00 0.00 0.00 0.00 0.00 0.00 0.00 0.00 0.00 0.00 0.00 0.00 0.01 0.01 0.00 0.01 0.04 0.17 0.34
0.05 0.03 0.11 0.09 0.08 0.05 0.05 0.06 0.06 0.05 0.10 0.06 0.04 0.13 0.15 0.12 0.11 0.02 0.00 0.01 0.02 0.01 0.02 0.02 0.02 0.01 0.00 0.00 0.00 0.00 0.00 0.00 0.00 0.00 0.00 0.00 0.00 0.01 0.02 0.01 0.02 0.02 0.07
0.06 0.03 0.02 0.04 0.05 0.05 0.08 0.07 0.06 0.04 0.16 0.22 0.04 0.02 0.02 0.12 0.19 0.16 0.03 0.00 0.00 0.02 0.03 0.03 0.04 0.07 0.08 0.05 0.03 0.02 0.00 0.00 0.00 0.00 0.00 0.00 0.00 0.01 0.03 0.04 0.03 0.02 0.02
0.07 0.05 0.03 0.09 0.06 0.03 0.13 0.18 0.11 0.08 0.14 0.23 0.11 0.10 0.04 0.06 0.08 0.12 0.10 0.08 0.04 0.03 0.04 0.07 0.06 0.08 0.11 0.13 0.14 0.12 0.07 0.03 0.01 0.00 0.00 0.00 0.01 0.01 0.02 0.05 0.06 0.06 0.06
0.12 0.07 0.06 0.06 0.10 0.10 0.17 0.22 0.27 0.27 0.31 0.31 0.23 0.23 0.21 0.19 0.16 0.22 0.20 0.12 0.13 0.09 0.09 0.18 0.23 0.18 0.18 0.14 0.14 0.13 0.10 0.05 0.03 0.03 0.01 0.01 0.01 0.01 0.02 0.03 0.07 0.10 0.12
0.07 0.08 0.16 0.12 0.10 0.23 0.27 0.37 0.40 0.38 0.41 0.49 0.63 0.57 0.49 0.43 0.29 0.29 0.35 0.32 0.32 0.20 0.21 0.19 0.17 0.14 0.19 0.30 0.29 0.27 0.21 0.16 0.11 0.05 0.01 0.01 0.01 0.00 0.01 0.01 0.05 0.06 0.08
0.10 0.13 0.21 0.36 0.32 0.33 0.34 0.38 0.49 0.67 0.77 0.73 0.69 0.60 0.45 0.36 0.38 0.41 0.48 0.52 0.41 0.20 0.13 0.10 0.05 0.08 0.08 0.12 0.21 0.22 0.12 0.12 0.16 0.17 0.15 0.09 0.03 0.02 0.02 0.03 0.02 0.06 0.07
0.36 0.30 0.36 0.47 0.48 0.40 0.52 0.60 0.58 0.43 0.34 0.30 0.34 0.39 0.39 0.34 0.29 0.23 0.25 0.33 0.59 0.45 0.11 0.03 0.04 0.04 0.07 0.10 0.12 0.18 0.21 0.16 0.15 0.14 0.11 0.12 0.14 0.10 0.04 0.03 0.03 0.04 0.06
0.47 0.52 0.50 0.49 0.42 0.31 0.33 0.37 0.33 0.26 0.32 0.34 0.34 0.36 0.28 0.23 0.22 0.20 0.21 0.20 0.21 0.26 0.16 0.01 0.01 0.00 0.00 0.01 0.03 0.05 0.09 0.16 0.16 0.17 0.21 0.09 0.04 0.10 0.15 0.13 0.04 0.03 0.04
0.64 0.68 0.48 0.36 0.29 0.43 0.48 0.37 0.37 0.37 0.38 0.42 0.39 0.31 0.25 0.21 0.18 0.15 0.11 0.08 0.07 0.08 0.13 0.06 0.04 0.03 0.00 0.00 0.00 0.00 0.01 0.03 0.06 0.09 0.17 0.18 0.13 0.14 0.13 0.16 0.16 0.07 0.02
0.75 0.58 0.39 0.31 0.33 0.39 0.57 0.72 0.62 0.54 0.50 0.47 0.43 0.37 0.29 0.28 0.30 0.30 0.31 0.30 0.26 0.22 0.26 0.21 0.12 0.08 0.01 0.00 0.00 0.00 0.00 0.00 0.01 0.03 0.08 0.18 0.26 0.20 0.18 0.17 0.17 0.14 0.06
0.39 0.34 0.35 0.31 0.34 0.34 0.34 0.33 0.34 0.38 0.42 0.43 0.45 0.42 0.35 0.27 0.22 0.20 0.21 0.22 0.20 0.20 0.21 0.19 0.11 0.06 0.03 0.01 0.01 0.01 0.01 0.01 0.00 0.01 0.01 0.04 0.08 0.12 0.16 0.17 0.16 0.16 0.14
0.17 0.19 0.15 0.15 0.15 0.18 0.21 0.22 0.27 0.29 0.27 0.23 0.23 0.27 0.36 0.42 0.41 0.34 0.27 0.20 0.16 0.13 0.12 0.14 0.12 0.05 0.03 0.01 0.03 0.04 0.04 0.03 0.03 0.02 0.02 0.01 0.04 0.05 0.07 0.11 0.14 0.12 0.11
0.13 0.16 0.15 0.18 0.21 0.19 0.20 0.20 0.17 0.15 0.15 0.17 0.17 0.19 0.20 0.23 0.21 0.19 0.18 0.14 0.11 0.13 0.13 0.13 0.12 0.06 0.05 0.03 0.05 0.07 0.09 0.05 0.03 0.03 0.04 0.03 0.04 0.04 0.05 0.08 0.12 0.15 0.12
0.23 0.26 0.36 0.36 0.27 0.25 0.35 0.25 0.14 0.07 0.05 0.05 0.05 0.05 0.08 0.12 0.09 0.12 0.13 0.14 0.13 0.19 0.24 0.16 0.11 0.10 0.06 0.07 0.08 0.09 0.11 0.09 0.07 0.05 0.09 0.07 0.07 0.07 0.09 0.13 0.18 0.21 0.26
0.45 0.54 0.44 0.37 0.26 0.18 0.25 0.20 0.15 0.04 0.04 0.04 0.03 0.04 0.06 0.10 0.14 0.05 0.11 0.10 0.10 0.13 0.16 0.16 0.18 0.13 0.12 0.09 0.10 0.12 0.15 0.17 0.13 0.05 0.08 0.08 0.05 0.07 0.03 0.03 0.03 0.04 0.11
0.47 0.37 0.27 0.17 0.14 0.15 0.18 0.12 0.13 0.04 0.05 0.06 0.07 0.07 0.08 0.10 0.17 0.16 0.19 0.16 0.11 0.14 0.15 0.11 0.15 0.16 0.13 0.08 0.09 0.12 0.16 0.15 0.08 0.02 0.05 0.11 0.03 0.04 0.04 0.01 0.01 0.02 0.07
0.15 0.08 0.08 0.08 0.09 0.12 0.17 0.13 0.11 0.03 0.05 0.09 0.09 0.12 0.16 0.15 0.33 0.34 0.26 0.25 0.23 0.22 0.22 0.17 0.16 0.15 0.14 0.11 0.11 0.24 0.20 0.24 0.18 0.06 0.05 0.11 0.05 0.05 0.02 0.01 0.01 0.01 0.04
0.07 0.06 0.07 0.07 0.13 0.10 0.18 0.13 0.11 0.05 0.10 0.13 0.14 0.16 0.25 0.20 0.35 0.22 0.21 0.18 0.20 0.14 0.14 0.17 0.13 0.09 0.06 0.05 0.05 0.09 0.16 0.32 0.29 0.21 0.07 0.20 0.10 0.13 0.20 0.09 0.05 0.05 0.06